Location: Wald
(31.7579°N, 86.6655°W)
Time: 00:42:45
(UTC+00:00)

Cosmos 921 Rocket - Pass Details

Date: 14 July 2020
Orbit: 572 x 631 km, 75.8° (Epoch: 12 August)

Event Time Altitude Azimuth Distance (km) Brightness Sun altitude
Rises 08:37:27 0° 343° (NNW) 2,870 6.9 -23.7°
Reaches altitude 10° 08:39:43 10° 342° (NNW) 1,953 6.0 -23.3°
Enters shadow 08:44:01 75° 263° (W) 619 2.8 -22.7°
